Volver al catálogo

STARLINK-30853

ActivoComunicacionesVLEO
NORAD 58236·PAYLOAD·🇺🇸 United States

Lanzado Nov 8, 2023 desde Cape Canaveral Space Force Station

Loading…

Próximos Pases (próximas 24 horas)

TLE

ActualizadoSource: CelesTrak SupGP

Época: Sep 14, 2026, 22:08 UTC

1 58236C 23171G   26257.92270833 -.00021091  00000+0 -76409-3 0  2574
2 58236  43.0008 296.8404 0001525 265.4091  29.7727 15.27580649    16

Sigue STARLINK-30853 en tiempo real con AllMySat

Download on the App Store